• In Hungary
  • List of Countries
  • For 7 days
  • Water Temperature
  • Satellite Maps
  • Weather Map
  • News
  • Weather Widgets
  • user-avatar
    Login

    Hourly Weather Limba

    Today, 20 September, Thursday

    Time Temperature Precipitation Wind Pressure Humidity
    00:00 +21°C° 0 mm 2 mps 662 mmHg 35%
    01:00 +20°C° 0 mm 2 mps 662 mmHg 38%
    02:00 +20°C° 0 mm 3 mps 661 mmHg 48%
    03:00 +19°C° 0 mm 3 mps 661 mmHg 52%
    04:00 +19°C° 0 mm 3 mps 661 mmHg 56%
    05:00 +18°C° 0 mm 3 mps 661 mmHg 60%
    06:00 +20°C° 0 mm 3 mps 662 mmHg 56%
    07:00 +22°C° 0 mm 4 mps 662 mmHg 52%
    08:00 +25°C° 0 mm 5 mps 663 mmHg 48%
    09:00 +27°C° 0 mm 5 mps 663 mmHg 43%
    10:00 +28°C° 0 mm 4 mps 664 mmHg 37%
    11:00 +30°C° 0 mm 4 mps 664 mmHg 32%
    12:00 +32°C° 0 mm 4 mps 663 mmHg 30%
    13:00 +33°C° 0 mm 4 mps 663 mmHg 27%
    14:00 +33°C° 0 mm 4 mps 662 mmHg 25%
    15:00 +32°C° 0 mm 4 mps 662 mmHg 25%
    16:00 +32°C° 0 mm 4 mps 662 mmHg 26%
    17:00 +30°C° 0 mm 4 mps 661 mmHg 26%
    18:00 +28°C° 0 mm 3 mps 661 mmHg 29%
    19:00 +27°C° 0 mm 3 mps 661 mmHg 32%
    20:00 +25°C° 0 mm 2 mps 661 mmHg 35%
    21:00 +25°C° 0 mm 2 mps 662 mmHg 37%
    22:00 +24°C° 0 mm 2 mps 662 mmHg 38%
    23:00 +23°C° 0 mm 1 mps 662 mmHg 40%

    Tomorrow, 21 September, Friday

    Time Temperature Precipitation Wind Pressure Humidity
    00:00 +23°C° 0 mm 1 mps 661 mmHg 40%
    01:00 +22°C° 0 mm 1 mps 661 mmHg 41%
    02:00 +22°C° 0 mm 1 mps 661 mmHg 41%
    03:00 +21°C° 0 mm 2 mps 661 mmHg 43%
    04:00 +20°C° 0 mm 2 mps 661 mmHg 44%
    05:00 +20°C° 0 mm 2 mps 661 mmHg 45%
    06:00 +22°C° 0 mm 3 mps 662 mmHg 43%
    07:00 +23°C° 0 mm 4 mps 663 mmHg 41%
    08:00 +26°C° 0 mm 4 mps 664 mmHg 39%
    09:00 +28°C° 0 mm 4 mps 664 mmHg 36%
    10:00 +29°C° 0 mm 4 mps 664 mmHg 34%
    11:00 +32°C° 0 mm 4 mps 664 mmHg 31%
    12:00 +32°C° 0 mm 4 mps 664 mmHg 30%
    13:00 +32°C° 0 mm 4 mps 663 mmHg 30%
    14:00 +32°C° 0 mm 4 mps 662 mmHg 29%
    15:00 +30°C° 0 mm 3 mps 662 mmHg 29%
    16:00 +30°C° 0 mm 3 mps 661 mmHg 30%
    17:00 +29°C° 0 mm 3 mps 661 mmHg 30%
    18:00 +28°C° 0 mm 2 mps 661 mmHg 31%
    19:00 +27°C° 0 mm 2 mps 661 mmHg 33%
    20:00 +26°C° 0 mm 1 mps 662 mmHg 34%
    21:00 +25°C° 0 mm 1 mps 662 mmHg 35%
    22:00 +25°C° 0 mm 1 mps 662 mmHg 35%
    23:00 +24°C° 0 mm 1 mps 662 mmHg 35%

    Day after tomorrow, 22 September, Saturday

    Time Temperature Precipitation Wind Pressure Humidity
    00:00 +23°C° 0 mm 1 mps 661 mmHg 35%
    01:00 +21°C° 0 mm 2 mps 661 mmHg 34%
    02:00 +20°C° 0 mm 2 mps 660 mmHg 33%
    03:00 +20°C° 0 mm 2 mps 660 mmHg 35%
    04:00 +19°C° 0 mm 2 mps 660 mmHg 37%
    05:00 +19°C° 0 mm 2 mps 660 mmHg 38%
    06:00 +21°C° 0 mm 3 mps 661 mmHg 37%
    07:00 +23°C° 0 mm 4 mps 663 mmHg 35%
    08:00 +26°C° 0 mm 5 mps 664 mmHg 34%
    09:00 +27°C° 0 mm 5 mps 664 mmHg 30%
    10:00 +29°C° 0 mm 4 mps 664 mmHg 26%
    11:00 +32°C° 0 mm 4 mps 664 mmHg 23%
    12:00 +33°C° 0 mm 4 mps 663 mmHg 21%
    13:00 +33°C° 0 mm 4 mps 663 mmHg 19%
    14:00 +34°C° 0 mm 4 mps 662 mmHg 18%
    15:00 +33°C° 0 mm 4 mps 662 mmHg 18%
    16:00 +32°C° 0 mm 4 mps 661 mmHg 19%
    17:00 +32°C° 0 mm 4 mps 661 mmHg 20%
    18:00 +29°C° 0 mm 3 mps 661 mmHg 22%
    19:00 +27°C° 0 mm 3 mps 661 mmHg 24%
    20:00 +26°C° 0 mm 2 mps 661 mmHg 26%
    21:00 +25°C° 0 mm 2 mps 661 mmHg 27%
    22:00 +24°C° 0 mm 2 mps 661 mmHg 27%
    23:00 +23°C° 0 mm 2 mps 661 mmHg 28%

    23 September, Sunday

    Time Temperature Precipitation Wind Pressure Humidity
    00:00 +23°C° 0 mm 2 mps 661 mmHg 30%
    01:00 +21°C° 0 mm 2 mps 661 mmHg 31%
    02:00 +20°C° 0 mm 2 mps 660 mmHg 33%
    03:00 +20°C° 0 mm 2 mps 660 mmHg 37%
    04:00 +19°C° 0 mm 2 mps 661 mmHg 41%
    05:00 +19°C° 0 mm 2 mps 661 mmHg 45%
    06:00 +21°C° 0 mm 3 mps 662 mmHg 42%
    07:00 +22°C° 0 mm 4 mps 663 mmHg 39%
    08:00 +25°C° 0 mm 5 mps 664 mmHg 36%
    09:00 +27°C° 0 mm 5 mps 664 mmHg 33%
    10:00 +28°C° 0 mm 5 mps 664 mmHg 29%
    11:00 +30°C° 0 mm 5 mps 664 mmHg 26%
    12:00 +32°C° 0 mm 4 mps 663 mmHg 24%
    13:00 +32°C° 0 mm 4 mps 662 mmHg 22%
    14:00 +33°C° 0 mm 4 mps 662 mmHg 20%
    15:00 +32°C° 0 mm 4 mps 661 mmHg 21%
    16:00 +32°C° 0 mm 4 mps 661 mmHg 21%
    17:00 +30°C° 0 mm 4 mps 661 mmHg 22%
    18:00 +28°C° 0 mm 3 mps 661 mmHg 24%
    19:00 +27°C° 0 mm 3 mps 661 mmHg 27%
    20:00 +25°C° 0 mm 2 mps 661 mmHg 29%
    21:00 +24°C° 0 mm 2 mps 661 mmHg 30%
    22:00 +24°C° 0 mm 2 mps 661 mmHg 31%
    23:00 +23°C° 0 mm 2 mps 661 mmHg 32%

    24 September, Monday

    Time Temperature Precipitation Wind Pressure Humidity
    00:00 +21°C° 0 mm 2 mps 660 mmHg 33%
    01:00 +21°C° 0 mm 2 mps 660 mmHg 34%
    02:00 +20°C° 0 mm 2 mps 659 mmHg 35%
    03:00 +21°C° 0 mm 1 mps 660 mmHg 38%
    04:00 +20°C° 0 mm 1 mps 660 mmHg 40%
    05:00 +20°C° 0 mm 1 mps 660 mmHg 43%
    06:00 +21°C° 0 mm 3 mps 661 mmHg 41%
    07:00 +23°C° 0 mm 4 mps 662 mmHg 38%
    08:00 +25°C° 0 mm 5 mps 663 mmHg 36%
    09:00 +27°C° 0 mm 5 mps 663 mmHg 33%
    10:00 +29°C° 0 mm 4 mps 663 mmHg 30%
    11:00 +30°C° 0 mm 4 mps 663 mmHg 26%
    12:00 +32°C° 0 mm 4 mps 662 mmHg 25%
    13:00 +33°C° 0 mm 4 mps 662 mmHg 23%
    14:00 +34°C° 0 mm 4 mps 661 mmHg 21%
    15:00 +33°C° 0 mm 4 mps 661 mmHg 22%
    16:00 +32°C° 0 mm 4 mps 660 mmHg 23%
    17:00 +30°C° 0 mm 4 mps 660 mmHg 24%
    18:00 +29°C° 0 mm 4 mps 660 mmHg 28%
    19:00 +27°C° 0 mm 3 mps 660 mmHg 31%
    20:00 +26°C° 0 mm 3 mps 661 mmHg 35%
    21:00 +25°C° 0 mm 3 mps 660 mmHg 37%
    22:00 +24°C° 0 mm 2 mps 660 mmHg 40%
    23:00 +23°C° 0 mm 2 mps 660 mmHg 42%

    25 September, Tuesday

    Time Temperature Precipitation Wind Pressure Humidity
    00:00 +23°C° 0 mm 2 mps 660 mmHg 43%
    01:00 +23°C° 0 mm 2 mps 659 mmHg 44%
    02:00 +21°C° 0 mm 3 mps 659 mmHg 46%
    03:00 +21°C° 0 mm 3 mps 659 mmHg 49%
    04:00 +21°C° 0 mm 3 mps 659 mmHg 52%
    05:00 +20°C° 0 mm 3 mps 660 mmHg 55%
    06:00 +22°C° 0 mm 4 mps 661 mmHg 53%
    07:00 +23°C° 0 mm 4 mps 662 mmHg 52%
    08:00 +25°C° 0 mm 5 mps 662 mmHg 50%
    09:00 +27°C° 0 mm 5 mps 662 mmHg 44%
    10:00 +29°C° 0 mm 4 mps 662 mmHg 38%
    11:00 +32°C° 0 mm 4 mps 662 mmHg 31%
    12:00 +33°C° 0 mm 4 mps 662 mmHg 29%
    13:00 +34°C° 0 mm 4 mps 661 mmHg 26%
    14:00 +34°C° 0 mm 4 mps 660 mmHg 24%
    15:00 +33°C° 0 mm 4 mps 660 mmHg 26%
    16:00 +33°C° 0 mm 4 mps 660 mmHg 27%
    17:00 +32°C° 0 mm 4 mps 660 mmHg 29%
    18:00 +29°C° 0 mm 4 mps 660 mmHg 34%
    19:00 +28°C° 0 mm 4 mps 660 mmHg 40%
    20:00 +26°C° 0 mm 4 mps 660 mmHg 45%
    21:00 +26°C° 0 mm 4 mps 660 mmHg 48%
    22:00 +25°C° 0 mm 3 mps 660 mmHg 51%
    23:00 +25°C° 0 mm 3 mps 660 mmHg 53%
    Show more